| time (UTC) | temp F | wind direction | speed MPH | gust MPH | rain 1hr in | rain 24hr in | rain mn in | humidity % | barometer mb |
| 20260903005604 | 56 | 191 | 0.0 | 0.0 | 0.06 | 0.10 | 0.10 | 95 | 1000.4 |
| 20260903005104 | 56 | 191 | 0.0 | 0.0 | 0.06 | 0.10 | 0.10 | 94 | 1000.5 |
| 20260903004604 | 56 | 191 | 0.0 | 0.0 | 0.07 | 0.10 | 0.10 | 94 | 1000.5 |
| 20260903004105 | 57 | 191 | 0.0 | 0.0 | 0.08 | 0.10 | 0.10 | 94 | 1000.4 |
| 20260903003604 | 57 | 191 | 0.0 | 0.0 | 0.07 | 0.09 | 0.09 | 94 | 1000.4 |
| 20260903003105 | 57 | 191 | 0.0 | 0.0 | 0.08 | 0.09 | 0.09 | 94 | 1000.4 |
| 20260903002105 | 57 | 191 | 0.0 | 0.0 | 0.08 | 0.09 | 0.09 | 93 | 1000.5 |
| 20260903001604 | 57 | 191 | 0.0 | 0.0 | 0.07 | 0.08 | 0.08 | 93 | 1000.5 |
| 20260903001104 | 57 | 191 | 0.0 | 0.0 | 0.06 | 0.07 | 0.07 | 92 | 1000.4 |
| 20260903000605 | 58 | 191 | 2.0 | 6.0 | 0.05 | 0.06 | 0.06 | 92 | 1000.4 |
| 20260902235604 | 58 | 191 | 0.0 | 0.0 | 0.04 | 0.05 | 0.05 | 92 | 1000.4 |
| 20260902235104 | 58 | 191 | 0.0 | 0.0 | 0.03 | 0.04 | 0.04 | 91 | 1000.5 |
| 20260902234604 | 59 | 191 | 0.0 | 0.0 | 0.02 | 0.03 | 0.03 | 90 | 1000.4 |
| 20260902234105 | 59 | 191 | 0.0 | 0.0 | 0.02 | 0.02 | 0.02 | 89 | 1000.4 |
| 20260902233604 | 59 | 191 | 0.0 | 0.0 | 0.02 | 0.02 | 0.02 | 88 | 1000.3 |
| 20260902233104 | 60 | 191 | 0.0 | 0.0 | 0.01 | 0.02 | 0.02 | 84 | 1000.3 |
| 20260902232104 | 61 | 191 | 0.0 | 0.0 | 0.00 | 0.01 | 0.01 | 81 | 1000.3 |
| 20260902231604 | 62 | 191 | 0.0 | 1.0 | 0.00 | 0.01 | 0.01 | 77 | 1000.3 |
| 20260902230604 | 63 | 193 | 0.0 | 0.0 | 0.00 | 0.01 | 0.01 | 77 | 1000.3 |
| 20260902225604 | 63 | 194 | 0.0 | 0.0 | 0.00 | 0.01 | 0.01 | 75 | 1000.3 |
| 20260902225104 | 63 | 194 | 0.0 | 3.0 | 0.00 | 0.01 | 0.01 | 76 | 1000.4 |
| 20260902224604 | 63 | 193 | 0.0 | 0.0 | 0.00 | 0.01 | 0.01 | 77 | 1000.3 |
| 20260902224104 | 63 | 194 | 0.0 | 0.0 | 0.00 | 0.01 | 0.01 | 75 | 1000.4 |
| 20260902223104 | 63 | 92 | 0.0 | 0.0 | 0.00 | 0.01 | 0.01 | 75 | 1000.5 |
| 20260902222604 | 63 | 92 | 0.0 | 0.0 | 0.00 | 0.01 | 0.01 | 75 | 1000.6 |
| 20260902222105 | 63 | 197 | 0.0 | 0.0 | 0.00 | 0.01 | 0.01 | 74 | 1000.6 |
| 20260902221604 | 63 | 197 | 0.0 | 0.0 | 0.00 | 0.01 | 0.01 | 74 | 1000.7 |
| 20260902221105 | 63 | 197 | 0.0 | 2.0 | 0.00 | 0.01 | 0.01 | 74 | 1000.7 |
| 20260902220105 | 63 | 309 | 0.0 | 0.0 | 0.00 | 0.01 | 0.01 | 74 | 1000.7 |
| 20260902215105 | 63 | 313 | 0.0 | 0.0 | 0.00 | 0.01 | 0.01 | 75 | 1000.8 |
| 20260902214604 | 63 | 313 | 0.0 | 0.0 | 0.00 | 0.01 | 0.01 | 76 | 1000.8 |
| 20260902214104 | 63 | 313 | 0.0 | 0.0 | 0.00 | 0.01 | 0.01 | 76 | 1000.8 |
| 20260902213604 | 63 | 315 | 0.0 | 8.0 | 0.00 | 0.01 | 0.01 | 77 | 1000.9 |
| 20260902213105 | 63 | 302 | 0.0 | 2.0 | 0.00 | 0.01 | 0.01 | 76 | 1001.0 |
| 20260902212104 | 64 | 56 | 0.0 | 1.0 | 0.00 | 0.01 | 0.01 | 74 | 1001.0 |
| 20260902211604 | 64 | 123 | 0.0 | 0.0 | 0.00 | 0.01 | 0.01 | 74 | 1001.1 |
| 20260902210604 | 65 | 60 | 0.0 | 1.0 | 0.00 | 0.01 | 0.01 | 71 | 1001.2 |
| 20260902205605 | 65 | 48 | 0.0 | 1.0 | 0.00 | 0.01 | 0.01 | 72 | 1001.4 |
| 20260902205104 | 65 | 61 | 0.0 | 5.0 | 0.00 | 0.01 | 0.01 | 71 | 1001.4 |
| 20260902204604 | 65 | 81 | 0.0 | 5.0 | 0.00 | 0.01 | 0.01 | 70 | 1001.4 |
| 20260902204105 | 65 | 162 | 1.0 | 3.0 | 0.00 | 0.01 | 0.01 | 70 | 1001.3 |
| 20260902203604 | 65 | 50 | 0.0 | 1.0 | 0.00 | 0.01 | 0.01 | 71 | 1001.3 |
| 20260902202604 | 64 | 208 | 1.0 | 8.0 | 0.00 | 0.01 | 0.01 | 72 | 1001.4 |
| 20260902202104 | 64 | 231 | 1.0 | 6.0 | 0.00 | 0.01 | 0.01 | 73 | 1001.4 |
| 20260902201605 | 65 | 268 | 0.0 | 5.0 | 0.00 | 0.01 | 0.01 | 73 | 1001.5 |
| 20260902201104 | 64 | 229 | 1.0 | 2.0 | 0.00 | 0.01 | 0.01 | 72 | 1001.6 |
| 20260902200604 | 64 | 152 | 1.0 | 3.0 | 0.00 | 0.01 | 0.01 | 72 | 1001.7 |
| 20260902200104 | 64 | 172 | 0.0 | 5.0 | 0.00 | 0.01 | 0.01 | 74 | 1001.7 |
| 20260902195604 | 64 | 193 | 2.0 | 9.0 | 0.00 | 0.01 | 0.01 | 73 | 1001.7 |
| 20260902195104 | 64 | 80 | 0.0 | 2.0 | 0.00 | 0.01 | 0.01 | 75 | 1001.8 |
| 20260902194105 | 64 | 172 | 0.0 | 12.0 | 0.00 | 0.01 | 0.01 | 76 | 1001.9 |
| 20260902193604 | 64 | 86 | 0.0 | 3.0 | 0.00 | 0.01 | 0.01 | 78 | 1001.9 |
| 20260902193104 | 63 | 49 | 0.0 | 0.0 | 0.00 | 0.01 | 0.01 | 78 | 1002.0 |
| 20260902192604 | 63 | 49 | 0.0 | 1.0 | 0.00 | 0.01 | 0.01 | 78 | 1002.1 |
| 20260902192104 | 63 | 49 | 1.0 | 6.0 | 0.00 | 0.01 | 0.01 | 78 | 1002.1 |
| 20260902191605 | 63 | 283 | 0.0 | 1.0 | 0.00 | 0.01 | 0.01 | 78 | 1002.1 |
| 20260902190104 | 62 | 58 | 0.0 | 0.0 | 0.00 | 0.01 | 0.01 | 81 | 1002.2 |
| 20260902185604 | 62 | 58 | 0.0 | 0.0 | 0.00 | 0.01 | 0.01 | 82 | 1002.2 |
| 20260902184604 | 62 | 55 | 0.0 | 0.0 | 0.00 | 0.01 | 0.01 | 81 | 1002.4 |
| 20260902184104 | 62 | 55 | 0.0 | 0.0 | 0.00 | 0.01 | 0.01 | 81 | 1002.3 |
| 20260902183604 | 62 | 55 | 0.0 | 0.0 | 0.00 | 0.01 | 0.01 | 81 | 1002.4 |
| 20260902183104 | 62 | 55 | 0.0 | 0.0 | 0.00 | 0.01 | 0.01 | 80 | 1002.5 |
| 20260902182604 | 62 | 55 | 0.0 | 0.0 | 0.00 | 0.01 | 0.01 | 81 | 1002.5 |
| 20260902182104 | 61 | 55 | 0.0 | 2.0 | 0.00 | 0.01 | 0.01 | 81 | 1002.6 |
| 20260902181604 | 62 | 55 | 0.0 | 0.0 | 0.00 | 0.01 | 0.01 | 81 | 1002.6 |
| 20260902181105 | 62 | 55 | 0.0 | 1.0 | 0.00 | 0.01 | 0.01 | 81 | 1002.6 |
| 20260902180604 | 62 | 55 | 0.0 | 0.0 | 0.00 | 0.01 | 0.01 | 80 | 1002.5 |
| 20260902180104 | 62 | 55 | 0.0 | 1.0 | 0.00 | 0.01 | 0.01 | 81 | 1002.6 |
| 20260902175104 | 61 | 200 | 0.0 | 1.0 | 0.00 | 0.01 | 0.01 | 81 | 1002.8 |
| 20260902174604 | 61 | 200 | 0.0 | 6.0 | 0.00 | 0.01 | 0.01 | 81 | 1002.9 |
| 20260902174104 | 61 | 187 | 0.0 | 1.0 | 0.00 | 0.01 | 0.01 | 81 | 1002.9 |
| 20260902173604 | 61 | 181 | 0.0 | 0.0 | 0.00 | 0.01 | 0.01 | 82 | 1002.8 |
| 20260902173104 | 61 | 181 | 1.0 | 2.0 | 0.00 | 0.01 | 0.01 | 81 | 1002.9 |
| 20260902172605 | 61 | 228 | 0.0 | 5.0 | 0.00 | 0.01 | 0.01 | 81 | 1002.9 |
| 20260902172104 | 61 | 120 | 0.0 | 0.0 | 0.00 | 0.01 | 0.01 | 82 | 1002.9 |
| 20260902171604 | 61 | 160 | 0.0 | 0.0 | 0.00 | 0.01 | 0.01 | 82 | 1003.0 |
| 20260902171104 | 61 | 159 | 1.0 | 2.0 | 0.00 | 0.01 | 0.01 | 82 | 1003.0 |
| 20260902170604 | 61 | 157 | 0.0 | 6.0 | 0.00 | 0.01 | 0.01 | 83 | 1003.0 |
| 20260902170103 | 60 | 215 | 0.0 | 3.0 | 0.00 | 0.01 | 0.01 | 83 | 1003.0 |
| 20260902165604 | 60 | 197 | 1.0 | 3.0 | 0.00 | 0.01 | 0.01 | 84 | 1003.0 |
| 20260902165104 | 60 | 196 | 0.0 | 2.0 | 0.00 | 0.01 | 0.01 | 83 | 1003.1 |
| 20260902164604 | 60 | 192 | 2.0 | 6.0 | 0.00 | 0.01 | 0.01 | 84 | 1003.0 |
| 20260902164104 | 60 | 178 | 0.0 | 3.0 | 0.00 | 0.01 | 0.01 | 85 | 1003.1 |
| 20260902163604 | 60 | 171 | 1.0 | 5.0 | 0.00 | 0.01 | 0.01 | 85 | 1003.0 |
| 20260902163104 | 60 | 160 | 0.0 | 2.0 | 0.00 | 0.01 | 0.01 | 85 | 1003.1 |
| 20260902162104 | 59 | 153 | 0.0 | 1.0 | 0.01 | 0.01 | 0.01 | 86 | 1003.1 |
| 20260902161604 | 59 | 153 | 0.0 | 0.0 | 0.01 | 0.01 | 0.01 | 86 | 1003.1 |
| 20260902161104 | 59 | 152 | 0.0 | 5.0 | 0.01 | 0.01 | 0.01 | 86 | 1003.2 |
| 20260902160604 | 59 | 155 | 0.0 | 2.0 | 0.01 | 0.01 | 0.01 | 87 | 1003.2 |
| 20260902160104 | 59 | 94 | 0.0 | 5.0 | 0.01 | 0.01 | 0.01 | 87 | 1003.2 |
| 20260902155603 | 59 | 175 | 0.0 | 2.0 | 0.01 | 0.01 | 0.01 | 87 | 1003.3 |
| 20260902154604 | 59 | 123 | 0.0 | 0.0 | 0.01 | 0.01 | 0.01 | 88 | 1003.4 |
| 20260902154111 | 58 | 123 | 0.0 | 0.0 | 0.01 | 0.01 | 0.01 | 88 | 1003.3 |
| 20260902153604 | 58 | 123 | 0.0 | 0.0 | 0.01 | 0.01 | 0.01 | 88 | 1003.3 |
| 20260902153104 | 58 | 123 | 0.0 | 0.0 | 0.01 | 0.01 | 0.01 | 88 | 1003.3 |
| 20260902152604 | 58 | 123 | 0.0 | 0.0 | 0.01 | 0.01 | 0.01 | 88 | 1003.3 |
| 20260902152104 | 58 | 149 | 0.0 | 2.0 | 0.00 | 0.00 | 0.00 | 88 | 1003.2 |
| 20260902151604 | 58 | 98 | 0.0 | 0.0 | 0.00 | 0.00 | 0.00 | 87 | 1003.1 |
| 20260902151104 | 58 | 173 | 0.0 | 0.0 | 0.00 | 0.00 | 0.00 | 87 | 1003.1 |
| 20260902150104 | 59 | 173 | 0.0 | 0.0 | 0.00 | 0.00 | 0.00 | 87 | 1003.0 |
| 20260902145604 | 59 | 173 | 0.0 | 0.0 | 0.00 | 0.00 | 0.00 | 87 | 1003.0 |
| 20260902145104 | 59 | 173 | 0.0 | 0.0 | 0.00 | 0.00 | 0.00 | 87 | 1003.2 |
| 20260902144105 | 59 | 178 | 0.0 | 0.0 | 0.00 | 0.00 | 0.00 | 87 | 1003.3 |
| 20260902143603 | 59 | 184 | 0.0 | 0.0 | 0.00 | 0.00 | 0.00 | 87 | 1003.4 |
| 20260902143103 | 59 | 184 | 0.0 | 0.0 | 0.00 | 0.00 | 0.00 | 87 | 1003.5 |
| 20260902142605 | 59 | 185 | 0.0 | 0.0 | 0.00 | 0.00 | 0.00 | 87 | 1003.4 |
| 20260902142104 | 59 | 185 | 0.0 | 0.0 | 0.00 | 0.00 | 0.00 | 87 | 1003.4 |
| 20260902141103 | 58 | 185 | 0.0 | 0.0 | 0.00 | 0.00 | 0.00 | 88 | 1003.4 |
| 20260902140604 | 58 | 185 | 0.0 | 3.0 | 0.00 | 0.00 | 0.00 | 87 | 1003.4 |
| 20260902140104 | 58 | 258 | 0.0 | 0.0 | 0.00 | 0.00 | 0.00 | 88 | 1003.5 |
| 20260902135104 | 58 | 258 | 0.0 | 0.0 | 0.00 | 0.00 | 0.00 | 88 | 1003.5 |
| 20260902134604 | 58 | 258 | 0.0 | 0.0 | 0.00 | 0.00 | 0.00 | 88 | 1003.5 |
| 20260902134104 | 58 | 257 | 0.0 | 0.0 | 0.00 | 0.00 | 0.00 | 87 | 1003.6 |
| 20260902133604 | 58 | 257 | 0.0 | 0.0 | 0.00 | 0.00 | 0.00 | 87 | 1003.6 |
| 20260902133104 | 59 | 257 | 0.0 | 2.0 | 0.00 | 0.00 | 0.00 | 87 | 1003.7 |
| 20260902132603 | 59 | 258 | 0.0 | 0.0 | 0.00 | 0.00 | 0.00 | 86 | 1003.8 |
| 20260902132104 | 59 | 258 | 0.0 | 0.0 | 0.00 | 0.00 | 0.00 | 86 | 1003.7 |
| 20260902131605 | 59 | 17 | 0.0 | 0.0 | 0.00 | 0.00 | 0.00 | 85 | 1003.7 |
| 20260902130604 | 59 | 17 | 0.0 | 0.0 | 0.00 | 0.00 | 0.00 | 85 | 1003.7 |
| 20260902130104 | 60 | 17 | 0.0 | 0.0 | 0.00 | 0.00 | 0.00 | 84 | 1003.6 |
| 20260902125604 | 60 | 17 | 0.0 | 3.0 | 0.00 | 0.00 | 0.00 | 84 | 1003.6 |
| 20260902125104 | 60 | 199 | 0.0 | 0.0 | 0.00 | 0.00 | 0.00 | 84 | 1003.7 |
| 20260902124603 | 60 | 199 | 0.0 | 0.0 | 0.00 | 0.00 | 0.00 | 84 | 1003.8 |
| 20260902124104 | 59 | 205 | 0.0 | 0.0 | 0.00 | 0.00 | 0.00 | 84 | 1003.7 |
| 20260902123604 | 59 | 203 | 1.0 | 6.0 | 0.00 | 0.00 | 0.00 | 84 | 1003.8 |
| 20260902123104 | 59 | 180 | 0.0 | 0.0 | 0.00 | 0.00 | 0.00 | 84 | 1003.8 |
| 20260902121603 | 60 | 226 | 0.0 | 1.0 | 0.00 | 0.00 | 0.00 | 84 | 1004.0 |
| 20260902121104 | 60 | 102 | 0.0 | 0.0 | 0.00 | 0.00 | 0.00 | 84 | 1003.9 |
| 20260902120604 | 60 | 139 | 0.0 | 2.0 | 0.00 | 0.00 | 0.00 | 84 | 1003.8 |
| 20260902120104 | 59 | 127 | 0.0 | 0.0 | 0.00 | 0.00 | 0.00 | 84 | 1003.9 |
| 20260902115104 | 59 | 169 | 0.0 | 2.0 | 0.00 | 0.00 | 0.00 | 86 | 1003.8 |
| 20260902113604 | 58 | 179 | 0.0 | 0.0 | 0.00 | 0.00 | 0.00 | 86 | 1003.9 |
| 20260902113104 | 58 | 179 | 0.0 | 0.0 | 0.00 | 0.00 | 0.00 | 86 | 1004.0 |
| 20260902112604 | 58 | 179 | 0.0 | 0.0 | 0.00 | 0.00 | 0.00 | 86 | 1004.2 |
| 20260902112104 | 59 | 185 | 0.0 | 0.0 | 0.00 | 0.00 | 0.00 | 86 | 1004.2 |
| 20260902111603 | 59 | 199 | 0.0 | 0.0 | 0.00 | 0.00 | 0.00 | 85 | 1004.2 |
| 20260902111104 | 59 | 199 | 0.0 | 0.0 | 0.00 | 0.00 | 0.00 | 85 | 1004.2 |
| 20260902110604 | 59 | 199 | 0.0 | 0.0 | 0.00 | 0.00 | 0.00 | 85 | 1004.1 |
| 20260902110104 | 59 | 199 | 0.0 | 0.0 | 0.00 | 0.00 | 0.00 | 84 | 1004.1 |
| 20260902105603 | 59 | 199 | 0.0 | 0.0 | 0.00 | 0.00 | 0.00 | 84 | 1004.3 |
| 20260902105104 | 59 | 199 | 0.0 | 2.0 | 0.00 | 0.00 | 0.00 | 84 | 1004.3 |
| 20260902104604 | 59 | 198 | 0.0 | 0.0 | 0.00 | 0.00 | 0.00 | 84 | 1004.4 |
| 20260902103103 | 60 | 169 | 0.0 | 1.0 | 0.00 | 0.00 | 0.00 | 83 | 1004.6 |
| 20260902102603 | 60 | 179 | 0.0 | 0.0 | 0.00 | 0.00 | 0.00 | 83 | 1004.5 |
| 20260902101604 | 60 | 179 | 0.0 | 0.0 | 0.00 | 0.00 | 0.00 | 82 | 1004.7 |
| 20260902101104 | 60 | 179 | 0.0 | 0.0 | 0.00 | 0.00 | 0.00 | 82 | 1004.7 |
| 20260902100603 | 60 | 179 | 0.0 | 0.0 | 0.00 | 0.00 | 0.00 | 82 | 1004.7 |
| 20260902100104 | 60 | 179 | 0.0 | 0.0 | 0.00 | 0.00 | 0.00 | 81 | 1004.7 |
| 20260902095604 | 60 | 179 | 0.0 | 0.0 | 0.00 | 0.00 | 0.00 | 81 | 1004.9 |
| 20260902093103 | 61 | 88 | 0.0 | 0.0 | 0.00 | 0.00 | 0.00 | 80 | 1005.1 |
| 20260902092603 | 61 | 146 | 0.0 | 1.0 | 0.00 | 0.00 | 0.00 | 79 | 1005.1 |
| 20260902092104 | 61 | 169 | 0.0 | 0.0 | 0.00 | 0.00 | 0.00 | 79 | 1005.2 |
| 20260902091604 | 61 | 76 | 1.0 | 5.0 | 0.00 | 0.00 | 0.00 | 79 | 1005.2 |
| 20260902091104 | 61 | 47 | 0.0 | 0.0 | 0.00 | 0.00 | 0.00 | 78 | 1005.2 |
| 20260902090604 | 61 | 47 | 0.0 | 0.0 | 0.00 | 0.00 | 0.00 | 78 | 1005.2 |
| 20260902090104 | 61 | 48 | 0.0 | 0.0 | 0.00 | 0.00 | 0.00 | 77 | 1005.2 |
| 20260902085604 | 61 | 47 | 0.0 | 0.0 | 0.00 | 0.00 | 0.00 | 77 | 1005.2 |
| 20260902085104 | 61 | 47 | 0.0 | 0.0 | 0.00 | 0.00 | 0.00 | 76 | 1005.2 |
| 20260902084604 | 62 | 48 | 0.0 | 0.0 | 0.00 | 0.00 | 0.00 | 76 | 1005.2 |
| 20260902083103 | 62 | 47 | 0.0 | 0.0 | 0.00 | 0.00 | 0.00 | 75 | 1005.3 |
| 20260902082104 | 62 | 45 | 0.0 | 0.0 | 0.00 | 0.00 | 0.00 | 74 | 1005.3 |
| 20260902081103 | 62 | 289 | 0.0 | 2.0 | 0.00 | 0.00 | 0.00 | 74 | 1005.4 |
| 20260902080604 | 62 | 130 | 0.0 | 0.0 | 0.00 | 0.00 | 0.00 | 74 | 1005.3 |
| 20260902080103 | 62 | 130 | 0.0 | 0.0 | 0.00 | 0.00 | 0.00 | 74 | 1005.4 |
| 20260902075104 | 63 | 130 | 0.0 | 8.0 | 0.00 | 0.00 | 0.00 | 73 | 1005.4 |
| 20260902074604 | 63 | 337 | 0.0 | 0.0 | 0.00 | 0.00 | 0.00 | 73 | 1005.4 |
| 20260902074103 | 63 | 45 | 1.0 | 5.0 | 0.00 | 0.00 | 0.00 | 73 | 1005.4 |
| 20260902073604 | 63 | 184 | 3.0 | 10.0 | 0.00 | 0.00 | 0.00 | 73 | 1005.3 |
| 20260902072104 | 63 | 223 | 1.0 | 6.0 | 0.00 | 0.00 | 0.00 | 72 | 1005.3 |
| 20260902071604 | 63 | 169 | 2.0 | 8.0 | 0.00 | 0.00 | 0.00 | 72 | 1005.3 |
| 20260902071103 | 63 | 192 | 3.0 | 9.0 | 0.00 | 0.00 | 0.00 | 71 | 1005.3 |
| 20260902070104 | 64 | 134 | 1.0 | 6.0 | 0.00 | 0.00 | 0.00 | 70 | 1005.3 |
| 20260902065603 | 64 | 164 | 0.0 | 2.0 | 0.00 | 0.00 | 0.00 | 70 | 1005.3 |
| 20260902065103 | 64 | 82 | 0.0 | 1.0 | 0.00 | 0.00 | 0.00 | 70 | 1005.3 |
| 20260902064604 | 64 | 67 | 0.0 | 0.0 | 0.00 | 0.00 | 0.00 | 69 | 1005.4 |
| 20260902063604 | 63 | 74 | 1.0 | 8.0 | 0.00 | 0.00 | 0.00 | 70 | 1005.3 |
| 20260902063103 | 63 | 95 | 0.0 | 1.0 | 0.00 | 0.00 | 0.00 | 70 | 1005.4 |
| 20260902062603 | 63 | 287 | 0.0 | 0.0 | 0.00 | 0.00 | 0.00 | 72 | 1005.3 |
| 20260902062104 | 63 | 285 | 0.0 | 9.0 | 0.00 | 0.00 | 0.00 | 71 | 1005.4 |
| 20260902061603 | 63 | 331 | 0.0 | 0.0 | 0.00 | 0.00 | 0.00 | 71 | 1005.7 |
| 20260902061104 | 63 | 331 | 0.0 | 6.0 | 0.00 | 0.00 | 0.00 | 71 | 1005.6 |
| 20260902060603 | 63 | 331 | 0.0 | 5.0 | 0.00 | 0.00 | 0.00 | 70 | 1005.8 |
| 20260902060103 | 63 | 323 | 0.0 | 1.0 | 0.00 | 0.00 | 0.00 | 69 | 1005.8 |
| 20260902055604 | 63 | 323 | 1.0 | 5.0 | 0.00 | 0.00 | 0.00 | 69 | 1005.7 |
| 20260902054605 | 64 | 21 | 1.0 | 3.0 | 0.00 | 0.00 | 0.00 | 68 | 1005.8 |
| 20260902054103 | 64 | 12 | 0.0 | 0.0 | 0.00 | 0.00 | 0.00 | 68 | 1005.8 |
| 20260902053605 | 64 | 69 | 1.0 | 3.0 | 0.00 | 0.00 | 0.00 | 67 | 1006.0 |
| 20260902053105 | 65 | 71 | 0.0 | 0.0 | 0.00 | 0.00 | 0.00 | 66 | 1006.1 |
| 20260902052606 | 65 | 49 | 0.0 | 2.0 | 0.00 | 0.00 | 0.00 | 66 | 1006.0 |
| 20260902052106 | 65 | 73 | 0.0 | 5.0 | 0.00 | 0.00 | 0.00 | 65 | 1006.1 |
| 20260902051606 | 65 | 342 | 2.0 | 13.0 | 0.00 | 0.00 | 0.00 | 65 | 1006.1 |
| 20260902051106 | 65 | 74 | 2.0 | 12.0 | 0.00 | 0.00 | 0.00 | 65 | 1006.3 |
| 20260902050106 | 65 | 34 | 3.0 | 12.0 | 0.00 | 0.00 | 0.00 | 65 | 1006.1 |
| 20260902045605 | 65 | 60 | 1.0 | 6.0 | 0.00 | 0.00 | 0.00 | 65 | 1006.3 |
| 20260902045105 | 65 | 28 | 1.0 | 5.0 | 0.00 | 0.00 | 0.00 | 65 | 1006.2 |
| 20260902044606 | 65 | 53 | 0.0 | 0.0 | 0.00 | 0.00 | 0.00 | 65 | 1006.1 |
| 20260902043605 | 65 | 75 | 0.0 | 0.0 | 0.00 | 0.00 | 0.00 | 64 | 1006.0 |
| 20260902043106 | 65 | 70 | 1.0 | 6.0 | 0.00 | 0.00 | 0.00 | 64 | 1006.0 |
| 20260902042105 | 65 | 86 | 2.0 | 10.0 | 0.00 | 0.00 | 0.00 | 63 | 1006.1 |
| 20260902041605 | 65 | 132 | 1.0 | 8.0 | 0.00 | 0.00 | 0.00 | 63 | 1006.1 |
| 20260902040606 | 66 | 52 | 2.0 | 8.0 | 0.00 | 0.00 | 0.00 | 62 | 1006.3 |
| 20260902035105 | 65 | 70 | 1.0 | 9.0 | 0.00 | 0.00 | 0.00 | 62 | 1005.9 |
| 20260902034605 | 65 | 8 | 2.0 | 5.0 | 0.00 | 0.00 | 0.00 | 62 | 1005.9 |
| 20260902034106 | 66 | 34 | 1.0 | 5.0 | 0.00 | 0.00 | 0.00 | 62 | 1006.0 |
| 20260902033605 | 66 | 339 | 3.0 | 15.0 | 0.00 | 0.00 | 0.00 | 62 | 1006.0 |
| 20260902032606 | 66 | 337 | 3.0 | 9.0 | 0.00 | 0.00 | 0.00 | 62 | 1005.9 |
| 20260902032105 | 66 | 350 | 2.0 | 15.0 | 0.00 | 0.00 | 0.00 | 62 | 1006.0 |
| 20260902031606 | 66 | 92 | 2.0 | 15.0 | 0.00 | 0.00 | 0.00 | 61 | 1006.0 |
| 20260902031105 | 66 | 63 | 0.0 | 9.0 | 0.00 | 0.00 | 0.00 | 62 | 1006.0 |
| 20260902030605 | 66 | 97 | 0.0 | 5.0 | 0.00 | 0.00 | 0.00 | 63 | 1006.0 |
| 20260902030105 | 66 | 92 | 1.0 | 14.0 | 0.00 | 0.00 | 0.00 | 62 | 1005.9 |
| 20260902025605 | 67 | 66 | 2.0 | 9.0 | 0.00 | 0.00 | 0.00 | 61 | 1005.8 |
| 20260902025105 | 67 | 160 | 2.0 | 9.0 | 0.00 | 0.00 | 0.00 | 60 | 1005.9 |
| 20260902024105 | 67 | 104 | 1.0 | 8.0 | 0.00 | 0.00 | 0.00 | 60 | 1005.8 |
| 20260902023605 | 67 | 107 | 3.0 | 10.0 | 0.00 | 0.00 | 0.00 | 60 | 1005.8 |
| 20260902022605 | 67 | 140 | 2.0 | 13.0 | 0.00 | 0.00 | 0.00 | 60 | 1005.9 |
| 20260902022105 | 67 | 75 | 1.0 | 6.0 | 0.00 | 0.00 | 0.00 | 60 | 1005.9 |
| 20260902021605 | 67 | 54 | 2.0 | 9.0 | 0.00 | 0.00 | 0.00 | 61 | 1006.1 |
| 20260902021105 | 67 | 355 | 1.0 | 8.0 | 0.00 | 0.00 | 0.00 | 61 | 1006.1 |
| 20260902020605 | 68 | 153 | 2.0 | 5.0 | 0.00 | 0.00 | 0.00 | 60 | 1006.1 |
| 20260902020105 | 68 | 32 | 1.0 | 8.0 | 0.00 | 0.00 | 0.00 | 60 | 1006.2 |
| 20260902015106 | 68 | 342 | 1.0 | 9.0 | 0.00 | 0.00 | 0.00 | 60 | 1006.1 |
| 20260902014605 | 69 | 355 | 0.0 | 2.0 | 0.00 | 0.00 | 0.00 | 60 | 1006.1 |
| 20260902014105 | 69 | 53 | 2.0 | 8.0 | 0.00 | 0.00 | 0.00 | 59 | 1006.2 |
| 20260902013605 | 69 | 83 | 0.0 | 1.0 | 0.00 | 0.00 | 0.00 | 61 | 1006.2 |
| 20260902013105 | 68 | 92 | 0.0 | 6.0 | 0.00 | 0.00 | 0.00 | 70 | 1006.2 |
| 20260902012606 | 68 | 112 | 0.0 | 0.0 | 0.00 | 0.00 | 0.00 | 72 | 1006.2 |
| 20260902011605 | 68 | 112 | 0.0 | 0.0 | 0.00 | 0.00 | 0.00 | 72 | 1006.1 |
| 20260902011106 | 68 | 112 | 0.0 | 0.0 | 0.00 | 0.00 | 0.00 | 73 | 1006.0 |
| 20260902010604 | 69 | 112 | 0.0 | 0.0 | 0.00 | 0.00 | 0.00 | 70 | 1005.9 |
| 20260902010105 | 69 | 112 | 0.0 | 0.0 | 0.00 | 0.00 | 0.00 | 69 | 1005.8 |